Overview Statistics Trail Chart Weather Telemetry Raw packets
 

This is the latest recevied weather packets stored in our database for station/object KB1WCR. If no packets are shown the sender has not sent any weather packets the latest 10 day(s).

<< 32 33 34 35 36 37 38 >>
Time Temp. Humidity Pressure Rain* Wind** Luminosity Snow
1788194772 23.89° C 46% 1019.7 hPa 0 mm - 714 W/m² -
1788194467 23.89° C 47% 1019.8 hPa 0 mm - 715 W/m² -
1788194162 23.33° C 47% 1020 hPa 0 mm - 715 W/m² -
1788193857 23.33° C 46% 1020.1 hPa 0 mm - 715 W/m² -
1788193556 22.78° C 47% 1020.1 hPa 0 mm - 715 W/m² -
1788193255 22.78° C 47% 1020.2 hPa 0 mm - 715 W/m² -
1788192950 23.33° C 47% 1020.2 hPa 0 mm - 714 W/m² -
1788192646 22.78° C 52% 1020 hPa 0 mm - 712 W/m² -
1788192339 23.33° C 46% 1020 hPa 0 mm - 710 W/m² -
1788192035 22.78° C 50% 1020.1 hPa 0 mm - 707 W/m² -
1788191729 22.78° C 50% 1020.1 hPa 0 mm - 703 W/m² -
1788191425 22.22° C 52% 1020.2 hPa 0 mm - 701 W/m² -
1788191137 21.67° C 54% 1020.2 hPa 0 mm - 698 W/m² -
1788190821 22.22° C 51% 1020.4 hPa 0 mm - 695 W/m² -
1788190521 21.67° C 52% 1020.3 hPa 0 mm - 688 W/m² -
1788190218 22.22° C 50% 1020.5 hPa 0 mm - 685 W/m² -
1788189913 21.67° C 55% 1020.5 hPa 0 mm - 679 W/m² -
1788189609 21.67° C 54% 1020.4 hPa 0 mm - 672 W/m² -
1788189308 21.11° C 53% 1020.6 hPa 0 mm - 668 W/m² -
1788189003 21.67° C 54% 1020.7 hPa 0 mm - 661 W/m² -
1788188698 21.11° C 56% 1020.8 hPa 0 mm - 654 W/m² -
1788188398 21.67° C 52% 1020.7 hPa 0 mm - 646 W/m² -
1788188093 21.67° C 54% 1020.6 hPa 0 mm - 637 W/m² -
1788187790 21.67° C 61% 1020.8 hPa 0 mm - 631 W/m² -
1788187484 21.11° C 58% 1021 hPa 0 mm - 620 W/m² -

* Rain latest hour (hover to see other rain measurements)
** Current wind speed in m/s (hover to see current wind gust speed)